Flag for Austria Weather past 2 weeks in Baden, Lower Austria, Austria

Now
59 °F

Clear.


Feels Like: 57 °F
Forecast: 54 / 73 °F
Wind: 12 mph from Southeast

Location: Vienna Schwechat-Flughafen Airport

Current Time: Sep 18, 2014 at 2:02:52 AM

Latest Report: Sep 18, 2014 at 1:20 AM


Visibility: 10 mi

Pressure: 30.07 "Hg

Humidity: 88%

Dew point: 55 °F

Location of BadenLocation

Historic Weather in Baden — Graph

°F

Baden temperature yesterday

Maximum temperature yesterday: 72 °F (at 2:20 PM)
Minimum temperature yesterday: 55 °F (at 3:20 AM)
Average temperature yesterday: 62 °F

Past Weeks' High & Low Weather Summary

 TemperatureHumidityPressure
High77 °F (Sep 5, 3:20 PM)100% (Sep 4, 6:20 AM)30.12 "Hg (Sep 4, 6:20 AM)
Low54 °F (Sep 16, 5:20 AM)51% (Sep 5, 6:20 PM)29.80 "Hg (Sep 12, 4:20 AM)
Average63 °F85%30.01 "Hg
* Reported Sep 3 12:20 AM — Sep 18 12:50 AM, Baden, Weather by CustomWeather, © 2014

Note: Actual official high and low records may vary slightly from our data, if they occured in-between our weather recording intervals... More about our weather records

Advertising

Baden weather history for previous 24 hours

 ConditionsComfort  
Time TempWeatherWind HumidityBarometerVisibility
12:50 AM
Sep 18
59 °FClear.8 mph88%30.07 "Hg10 mi
12:20 AM59 °FClear.8 mph88%30.07 "Hg10 mi
11:50 PM
Sep 17
59 °FClear.8 mph88%30.07 "Hg10 mi
11:20 PM59 °FClear.8 mph88%30.07 "Hg10 mi
10:50 PM59 °FClear.8 mph88%30.07 "Hg10 mi
10:20 PM61 °FClear.9 mph83%30.07 "Hg10 mi
9:50 PM57 °FClear.8 mph94%30.07 "Hg10 mi
9:20 PM61 °FClear.8 mph83%30.07 "Hg10 mi
8:50 PM61 °FClear.8 mph83%30.07 "Hg10 mi
8:20 PM63 °FClear.9 mph77%30.07 "Hg10 mi
7:50 PM64 °FSunny.10 mph73%30.07 "Hg10 mi
7:20 PM64 °FSunny.10 mph73%30.04 "Hg10 mi
6:50 PM66 °FSunny.9 mph68%30.04 "Hg10 mi
6:20 PM66 °FSunny.10 mph68%30.07 "Hg10 mi
5:50 PM68 °FPassing clouds.12 mph64%30.07 "HgN/A
5:20 PM70 °FPassing clouds.14 mph60%30.07 "HgN/A
4:50 PM70 °FPassing clouds.14 mph60%30.07 "HgN/A
4:20 PM70 °FPassing clouds.16 mph57%30.07 "HgN/A
3:50 PM70 °FPassing clouds.16 mph57%30.07 "HgN/A
3:20 PM72 °FPassing clouds.15 mph57%30.07 "HgN/A
2:50 PM72 °FPassing clouds.16 mph53%30.07 "HgN/A
2:20 PM72 °FPassing clouds.14 mph57%30.07 "HgN/A
1:50 PM70 °FPassing clouds.15 mph57%30.07 "HgN/A
1:20 PM70 °FPassing clouds.14 mph57%30.09 "HgN/A
12:50 PM70 °FPassing clouds.13 mph64%30.09 "HgN/A
12:20 PM68 °FPassing clouds.12 mph64%30.09 "HgN/A
11:50 AM68 °FPassing clouds.12 mph69%30.09 "HgN/A
11:20 AM66 °FPassing clouds.12 mph73%30.09 "HgN/A
10:50 AM66 °FPassing clouds.12 mph78%30.09 "HgN/A
10:20 AM64 °FPassing clouds.10 mph78%30.09 "HgN/A
9:50 AM63 °FScattered clouds.10 mph88%30.09 "HgN/A
9:20 AM61 °FScattered clouds.7 mph88%30.09 "HgN/A
8:50 AM59 °FScattered clouds.9 mph94%30.09 "HgN/A
8:20 AM57 °FScattered clouds.7 mph94%30.09 "Hg5 mi
7:50 AM55 °FPassing clouds.7 mph100%30.09 "Hg4 mi
7:20 AM55 °FFog.7 mph100%30.09 "Hg2 mi
6:50 AM55 °FCool.5 mph94%30.07 "Hg1 mi
6:20 AM55 °FFog.6 mph94%30.07 "Hg1 mi
5:50 AM55 °FFog.8 mph100%30.07 "Hg3 mi
5:20 AM55 °FFog.7 mph100%30.07 "Hg3 mi
4:50 AM55 °FPassing clouds.5 mph100%30.07 "Hg4 mi
4:20 AM57 °FFog.7 mph94%30.09 "Hg3 mi
3:50 AM57 °FPassing clouds.5 mph94%30.09 "Hg4 mi
3:20 AM55 °FPassing clouds.3 mph100%30.09 "Hg4 mi
2:50 AM57 °FPassing clouds.5 mph100%30.09 "Hg4 mi
2:20 AM57 °FPassing clouds.5 mph100%30.09 "Hg4 mi
Weather by CustomWeather, © 2014

See weather overviewHow to use our weather pages